[[{"header":{"parameterUnit":"m.s-1","parameterCategory":1,"la1":30.2991,"la2":30.254,"lo1":-89.0895,"lo2":-89.0444,"dy":0.0017,"dx":0.0017,"nx":28,"ny":28,"refTime":"2025-12-14T09:00:00:Z","depth":0,"parameterNumber":2,"parameterNumberName":"U-component_of_WINDS"},"data":[0,0,0,0,0,0,0,0,0,0,0,0,0,0,0,0,0,0,0,0,0,0,0,0,0,0,0,0,0,0,0,0,0,0,0,0,0,0,0,0,0,0,0,0,0,0,0,0,0,0,0,0,0,0,0,0,0,0,-3.3507,-3.3508,0,-3.3626,-3.3628,-3.3629,-3.3555,-3.3551,-3.3548,-3.3544,-3.3668,-3.3675,-3.3681,0,0,0,0,0,0,0,0,0,0,0,0,0,-3.3216,-3.3222,-3.3507,-3.3509,-3.351,-3.3626,-3.3628,-3.3629,-3.3555,-3.3551,-3.3547,-3.3543,-3.3666,-3.3674,-3.3682,0,0,0,0,0,0,0,0,0,0,0,0,0,-3.334,-3.3224,-3.3507,-3.3487,-3.3486,-3.3626,-3.3628,-3.363,-3.3556,-3.3551,-3.3546,-3.3541,-3.3664,-3.3673,-3.3683,-3.3849,0,0,-3.3713,-3.3717,0,0,0,0,0,0,0,0,-3.3333,-3.335,-3.3489,-3.3489,-3.3488,-3.357,-3.357,-3.3703,-3.3558,-3.353,-3.3544,-3.3538,-3.364,-3.3651,-3.3685,-3.3854,-3.386,-3.3714,-3.372,-3.3724,-3.3727,0,0,0,0,0,0,0,-3.3324,-3.3345,-3.3554,-3.3491,-3.3491,-3.3472,-3.3484,-3.3595,-3.3613,-3.3532,-3.3527,-3.3542,-3.3639,-3.3676,-3.3688,-3.3862,-3.3713,-3.3722,-3.3728,-3.3732,-3.4172,-3.4178,0,0,0,0,0,0,-3.3317,-3.3338,-3.355,-3.3558,-3.3396,-3.3482,-3.3495,-3.3549,-3.3612,-3.3616,-3.3546,-3.3538,-3.3662,-3.3676,-3.3692,-3.389,-3.3724,-3.3733,-3.3739,-3.4166,-3.4173,-3.418,0,0,0,0,0,0,-3.3311,-3.3337,-3.3546,-3.3447,-3.3472,-3.3493,-3.3554,-3.3554,-3.3591,-3.3622,-3.3625,-3.3581,-3.3658,-3.3678,-3.381,-3.3894,-3.3738,-3.3746,-3.416,-3.4169,-3.4177,-3.4289,0,0,0,0,0,0,-3.3303,-3.3335,-3.3398,-3.3449,-3.3477,-3.3662,-3.3559,-3.3561,-3.3608,-3.3599,-3.3656,-3.366,-3.3656,-3.3796,-3.382,-3.3904,-3.3754,-3.4152,-3.4164,-3.4174,-3.4278,-3.43,-3.432,0,0,0,0,0,-3.3293,-3.3426,-3.3402,-3.3428,-3.3557,-3.3667,-3.3684,-3.3675,-3.3615,-3.3679,-3.3699,-3.3658,-3.388,-3.381,-3.3836,-3.3925,-3.4147,-3.416,-3.4173,-3.4269,-3.4296,-3.4319,0,0,0,0,0,0,-3.3386,-3.3432,-3.3406,-3.3559,-3.361,-3.3654,-3.3735,-3.3705,-3.3774,-3.3762,-3.3749,-3.3763,-3.3901,-3.3926,-3.3847,-3.4089,-3.4004,-3.4023,-3.4068,-3.4094,-3.4115,-3.4107,-3.3762,0,0,0,0,0,-3.3424,-3.3509,-3.3545,-3.3677,-3.3703,-3.3715,-3.3762,-3.3751,-3.3804,-3.3825,-3.3854,-3.3907,-3.3988,-3.4042,-3.4118,-3.428,-3.4292,-3.4354,-3.4375,-3.4392,-3.4409,-3.4497,-3.4525,-3.4222,-3.4222,-3.4222,0,0,-3.3504,-3.354,-3.3595,-3.3696,-3.3734,-3.3823,-3.3733,-3.3831,-3.3897,-3.384,-3.3967,-3.399,-3.4047,-3.4195,-3.4261,-3.422,-3.4495,-3.4409,-3.4422,-3.443,-3.4513,-3.4542,-3.4567,-3.4231,-3.423,-3.4228,0,0,-3.3696,-3.3731,-3.3845,-3.3884,-3.3942,-3.3948,-3.3976,-3.4025,-3.4038,-3.4164,-3.4123,-3.4201,-3.4341,-3.4384,-3.4424,-3.463,-3.4595,-3.4655,-3.4765,-3.485,-3.4874,-3.4895,-3.497,-3.4996,-3.4671,-3.4672,-3.4672,0,-3.3789,-3.3921,-3.3907,-3.4008,-3.4054,-3.4004,-3.4119,-3.4158,-3.4239,-3.4272,-3.4223,-3.4398,-3.4433,-3.459,-3.4641,-3.4674,-3.4705,-3.465,-3.4872,-3.4893,-3.4912,-3.4983,-3.5011,-3.4679,-3.4678,-3.4677,-3.4677,0,-3.4032,-3.4124,-3.4209,-3.4287,-3.4342,-3.445,-3.4452,-3.451,-3.4493,-3.4505,-3.4634,-3.4674,-3.4758,-3.4793,-3.4779,-3.4949,-3.4921,-3.4873,-3.4788,-3.4948,-3.5015,-3.5042,-3.4689,-3.4686,-3.4684,-3.4682,0,0,-3.4289,-3.4356,-3.4388,-3.4422,-3.4481,-3.4553,-3.4657,-3.4738,-3.4788,-3.4844,-3.4933,-3.5052,-3.5007,-3.5052,-3.5041,-3.5116,-3.5278,-3.5059,-3.506,-3.5099,-3.5468,-3.5505,-3.5537,-3.5254,-3.5259,-3.5263,-3.5463,0,-3.4485,-3.4668,-3.4658,-3.483,-3.4915,-3.4867,-3.4959,-3.5005,-3.5018,-3.5092,-3.5106,-3.5191,-3.5125,-3.5152,-3.5224,-3.5243,-3.5352,-3.5228,-3.5337,-3.5341,-3.5326,-3.5571,-3.5612,-3.5799,-3.5489,-3.5493,-3.5497,0,-3.4739,-3.4803,-3.4984,-3.5029,-3.5065,-3.5147,-3.522,-3.5291,-3.5342,-3.5346,-3.5397,-3.5373,-3.5479,-3.539,-3.5536,-3.5452,-3.5495,-3.5511,-3.5518,-3.5529,-3.543,-3.5591,-3.5858,-3.5887,-3.5537,-3.5534,-3.5531,0,-3.491,-3.5041,-3.5166,-3.5197,-3.5253,-3.5312,-3.5338,-3.5384,-3.5433,-3.5497,-3.5528,-3.5604,-3.5646,-3.5704,-3.5702,-3.5637,-3.585,-3.576,-3.5857,-3.5858,-3.5907,-3.5904,-3.6186,-3.5932,-3.5931,-3.5931,-3.593,0,-3.5131,-3.5244,-3.5243,-3.532,-3.5445,-3.5431,-3.5555,-3.5574,-3.5615,-3.5696,-3.5659,-3.5735,-3.5726,-3.5802,-3.5801,-3.5922,-3.5941,-3.5948,-3.5946,-3.5952,-3.5952,-3.5982,-3.597,-3.5938,-3.5936,-3.5935,-3.5934,0,-3.5344,-3.5348,-3.5481,-3.5523,-3.5536,-3.5626,-3.5661,-3.5734,-3.5743,-3.5845,-3.5868,-3.5882,-3.597,-3.5973,-3.6074,-3.6072,-3.6221,-3.6204,-3.6204,-3.6202,-3.6299,-3.629,-3.6613,-3.6655,-3.6371,-3.6374,-3.6376,0,-3.5486,-3.5571,-3.5622,-3.5672,-3.5702,-3.5784,-3.5834,-3.5823,-3.5876,-3.594,-3.6006,-3.6089,-3.6157,-3.6299,-3.6319,-3.6396,-3.6382,-3.6489,-3.6393,-3.6396,-3.6385,-3.6381,-3.6389,-3.6509,-3.6512,-3.6514,-3.6516,0,-3.5738,-3.5736,-3.5808,-3.5882,-3.5942,-3.5999,-3.6052,-3.6096,-3.6091,-3.6152,-3.6241,-3.6293,-3.6396,-3.648,-3.6554,-3.6581,-3.6549,-3.6546,-3.6573,-3.6581,-3.6578,-3.6582,-3.6257,-3.6539,-3.6537,-3.6535,-3.6534,-3.6533,-3.5921,-3.5995,-3.6042,-3.6123,-3.6162,-3.6212,-3.6282,-3.6299,-3.6373,-3.6456,-3.6444,-3.6544,-3.6591,-3.6688,-3.6721,-3.6798,-3.6761,-3.68,-3.681,-3.682,-3.6831,-3.6563,-3.6811,-3.6811,-3.681,-3.681,-3.6809,0,-3.6173,-3.62,-3.6275,-3.635,-3.6415,-3.6376,-3.6433,-3.6489,-3.6577,-3.6624,-3.669,-3.6792,-3.6873,-3.6898,-3.6977,-3.7034,-3.7021,-3.7055,-3.7052,-3.7059,-3.6859,-3.6829,-3.7064,-3.7064,-3.7064,-3.7064,-3.7064,-3.7064,-3.6311,-3.6434,-3.6437,-3.6577,-3.6603,-3.67,-3.6736,-3.6782,-3.6819,-3.6935,-3.7001,-3.7017,-3.7055,-3.7136,-3.7208,-3.7213,-3.7245,-3.7285,-3.7285,-3.7098,-3.7073,-3.7049,-3.702,-3.7292,-3.7292,-3.7478,-3.748,-3.7481]},{"header":{"parameterUnit":"m.s-1","parameterCategory":1,"la1":30.2991,"la2":30.254,"lo1":-89.0895,"lo2":-89.0444,"dy":0.0017,"dx":0.0017,"nx":28,"ny":28,"refTime":"2025-12-14T09:00:00:Z","depth":0,"parameterNumber":3,"parameterNumberName":"V-component_of_WINDS"},"data":[0,0,0,0,0,0,0,0,0,0,0,0,0,0,0,0,0,0,0,0,0,0,0,0,0,0,0,0,0,0,0,0,0,0,0,0,0,0,0,0,0,0,0,0,0,0,0,0,0,0,0,0,0,0,0,0,0,0,-6.8657,-6.8658,0,-6.8758,-6.8759,-6.876,-6.8686,-6.8683,-6.8679,-6.8676,-6.8774,-6.8779,-6.8785,0,0,0,0,0,0,0,0,0,0,0,0,0,-6.8394,-6.8399,-6.8657,-6.8658,-6.866,-6.8757,-6.8759,-6.876,-6.8686,-6.8683,-6.8679,-6.8675,-6.8772,-6.8778,-6.8785,0,0,0,0,0,0,0,0,0,0,0,0,0,-6.8502,-6.8401,-6.8657,-6.8635,-6.8634,-6.8757,-6.8759,-6.8761,-6.8687,-6.8682,-6.8678,-6.8673,-6.877,-6.8778,-6.8786,-6.8935,0,0,-6.8812,-6.8815,0,0,0,0,0,0,0,0,-6.8496,-6.8512,-6.8637,-6.8636,-6.8636,-6.8704,-6.8701,-6.8819,-6.8689,-6.8667,-6.8676,-6.8671,-6.8754,-6.8763,-6.8793,-6.8939,-6.8944,-6.8812,-6.8818,-6.8821,-6.8823,0,0,0,0,0,0,0,-6.8489,-6.8507,-6.8697,-6.8639,-6.8638,-6.8617,-6.8627,-6.8723,-6.8736,-6.8668,-6.8663,-6.8676,-6.8753,-6.8785,-6.8794,-6.8945,-6.8812,-6.882,-6.8825,-6.8828,-6.9215,-6.922,0,0,0,0,0,0,-6.8484,-6.8502,-6.8693,-6.87,-6.8553,-6.8626,-6.8637,-6.8687,-6.8735,-6.8738,-6.868,-6.8673,-6.8773,-6.8785,-6.8798,-6.8973,-6.8821,-6.8829,-6.8834,-6.921,-6.9216,-6.9222,0,0,0,0,0,0,-6.8479,-6.8502,-6.8689,-6.8599,-6.8622,-6.8636,-6.8692,-6.8692,-6.8724,-6.8744,-6.8745,-6.8711,-6.877,-6.8786,-6.8901,-6.8975,-6.8833,-6.884,-6.9204,-6.9212,-6.9219,-6.9326,0,0,0,0,0,0,-6.8472,-6.8501,-6.8559,-6.8601,-6.8627,-6.8794,-6.8697,-6.8697,-6.8739,-6.873,-6.8774,-6.8776,-6.8767,-6.8889,-6.8909,-6.8984,-6.8847,-6.9197,-6.9207,-6.9217,-6.9316,-6.9337,-6.9355,0,0,0,0,0,-6.8463,-6.8585,-6.8563,-6.8586,-6.8701,-6.8798,-6.8812,-6.8801,-6.8746,-6.8803,-6.8816,-6.8775,-6.8964,-6.8901,-6.8924,-6.9002,-6.9192,-6.9204,-6.9216,-6.9308,-6.9333,-6.9354,0,0,0,0,0,0,-6.855,-6.859,-6.8566,-6.8706,-6.875,-6.8786,-6.8858,-6.8829,-6.8887,-6.8876,-6.8857,-6.8868,-6.8988,-6.9007,-6.8936,-6.9147,-6.9069,-6.9086,-6.9131,-6.9155,-6.9174,-6.9166,-6.8854,0,0,0,0,0,-6.8586,-6.8664,-6.8694,-6.8814,-6.8837,-6.8844,-6.8886,-6.8874,-6.8917,-6.8935,-6.8956,-6.8998,-6.9066,-6.9112,-6.9176,-6.9318,-6.9325,-6.9383,-6.9402,-6.9418,-6.9433,-6.9506,-6.9532,-6.9261,-6.9261,-6.926,0,0,-6.866,-6.8692,-6.8742,-6.8833,-6.8865,-6.8943,-6.886,-6.8947,-6.9005,-6.8947,-6.9057,-6.9074,-6.9119,-6.9248,-6.9306,-6.9267,-6.9509,-6.9433,-6.9446,-6.9452,-6.9521,-6.9547,-6.957,-6.9269,-6.9267,-6.9266,0,0,-6.8836,-6.8869,-6.8972,-6.9005,-6.9056,-6.9059,-6.9084,-6.9124,-6.9134,-6.9244,-6.9202,-6.9268,-6.9388,-6.9421,-6.9453,-6.9639,-6.9602,-6.966,-6.976,-6.9833,-6.9854,-6.9873,-6.9937,-6.996,-6.9675,-6.9675,-6.9675,0,-6.8921,-6.904,-6.9028,-6.9118,-6.9158,-6.9111,-6.9213,-6.9246,-6.9313,-6.9341,-6.9297,-6.9444,-6.9471,-6.9606,-6.9651,-6.968,-6.9705,-6.9655,-6.9852,-6.9871,-6.9888,-6.9949,-6.9974,-6.9682,-6.9681,-6.968,-6.968,0,-6.9142,-6.9225,-6.9301,-6.937,-6.9418,-6.9514,-6.9513,-6.9563,-6.9546,-6.9553,-6.9664,-6.9695,-6.9764,-6.9795,-6.9778,-6.9926,-6.9901,-6.9855,-6.9776,-6.9921,-6.9978,-7.0001,-6.9691,-6.9689,-6.9687,-6.9685,0,0,-6.9376,-6.9435,-6.9463,-6.9492,-6.9543,-6.9606,-6.9698,-6.9767,-6.9809,-6.9857,-6.9931,-7.0033,-6.999,-7.0027,-7.0014,-7.0077,-7.022,-7.0023,-7.0024,-7.0057,-7.0382,-7.0415,-7.0442,-7.0196,-7.02,-7.0204,-7.0377,0,-6.9553,-6.9716,-6.9706,-6.9858,-6.9933,-6.9888,-6.9967,-7.0006,-7.0014,-7.0077,-7.0085,-7.0157,-7.0096,-7.0118,-7.0179,-7.019,-7.0284,-7.0177,-7.0263,-7.0266,-7.0252,-7.0472,-7.0508,-7.067,-7.0399,-7.0403,-7.0406,0,-6.9781,-6.9838,-6.9998,-7.0035,-7.0066,-7.0139,-7.0199,-7.0261,-7.0302,-7.0303,-7.0344,-7.0319,-7.0409,-7.0328,-7.045,-7.0378,-7.0412,-7.0422,-7.0428,-7.0434,-7.0344,-7.0483,-7.0722,-7.0746,-7.0441,-7.0438,-7.0436,0,-6.9933,-7.005,-7.016,-7.0186,-7.0234,-7.0285,-7.0306,-7.0343,-7.0384,-7.0436,-7.0462,-7.0524,-7.0557,-7.0604,-7.0596,-7.0538,-7.0719,-7.0638,-7.0721,-7.0721,-7.076,-7.0758,-7.1006,-7.0785,-7.0784,-7.0784,-7.0784,0,-7.0131,-7.023,-7.0229,-7.0296,-7.0405,-7.0391,-7.0498,-7.0513,-7.0546,-7.0614,-7.0578,-7.0642,-7.0627,-7.069,-7.0683,-7.0784,-7.0799,-7.0801,-7.0798,-7.0804,-7.0803,-7.0825,-7.0813,-7.079,-7.0789,-7.0788,-7.0787,0,-7.032,-7.0323,-7.044,-7.0475,-7.0486,-7.0564,-7.0592,-7.0655,-7.066,-7.0746,-7.0765,-7.0772,-7.0844,-7.084,-7.0921,-7.0916,-7.1039,-7.1024,-7.1026,-7.1022,-7.1104,-7.1096,-7.1375,-7.1409,-7.1167,-7.1169,-7.1171,0,-7.0445,-7.0521,-7.0564,-7.0607,-7.0632,-7.0703,-7.0745,-7.0733,-7.0778,-7.0829,-7.0885,-7.0953,-7.1007,-7.1123,-7.1134,-7.1195,-7.1179,-7.1272,-7.1188,-7.119,-7.1178,-7.1173,-7.1179,-7.1289,-7.1291,-7.1294,-7.1296,0,-7.0667,-7.0664,-7.0727,-7.0791,-7.0842,-7.089,-7.0935,-7.0972,-7.0964,-7.1016,-7.1089,-7.1131,-7.1213,-7.1281,-7.1338,-7.1357,-7.1325,-7.1322,-7.1344,-7.135,-7.1348,-7.1348,-7.107,-7.1316,-7.1314,-7.1312,-7.1311,-7.131,-7.0827,-7.089,-7.093,-7.1001,-7.1033,-7.1075,-7.1135,-7.1148,-7.1209,-7.1276,-7.1265,-7.1347,-7.1382,-7.1457,-7.1481,-7.1543,-7.1509,-7.1542,-7.1549,-7.1557,-7.1566,-7.1339,-7.1553,-7.1553,-7.1552,-7.1552,-7.1551,0,-7.1045,-7.1068,-7.1133,-7.1197,-7.1251,-7.1218,-7.1264,-7.1311,-7.1384,-7.1422,-7.1476,-7.1558,-7.1623,-7.1639,-7.17,-7.1746,-7.1733,-7.1763,-7.1758,-7.1763,-7.1593,-7.1568,-7.1773,-7.1773,-7.1773,-7.1773,-7.1772,-7.1772,-7.1165,-7.127,-7.1272,-7.1392,-7.1414,-7.1495,-7.1524,-7.1562,-7.1591,-7.1686,-7.174,-7.175,-7.1778,-7.1841,-7.1898,-7.19,-7.1924,-7.196,-7.1956,-7.1797,-7.1775,-7.1754,-7.1729,-7.1965,-7.1965,-7.212,-7.2121,-7.2123]}]]